TimePDT,TemperatureF,Dew PointF,Humidity,Sea Level PressureIn,VisibilityMPH,Wind Direction,Wind SpeedMPH,Gust SpeedMPH,PrecipitationIn,Events,Conditions,WindDirDegrees,DateUTC
12:00 AM,55.4,42.8,63,30.17,9.0,East,13.8,-,N/A,,Clear,100,2012-10-07 07:00:00
1:00 AM,53.6,42.8,67,30.17,9.0,East,9.2,-,N/A,,Clear,90,2012-10-07 08:00:00
2:00 AM,54,41,51,30.16,,East,10.4,,,,,80,2012-10-07 09:00:00
2:00 AM,53.6,41.0,62,30.17,9.0,East,10.4,-,N/A,,Clear,90,2012-10-07 09:00:00
3:00 AM,51.8,41.0,67,30.16,9.0,East,11.5,-,N/A,,Clear,90,2012-10-07 10:00:00
4:00 AM,51.8,41.0,67,30.16,9.0,East,10.4,-,N/A,,Clear,80,2012-10-07 11:00:00
5:00 AM,51,41,59,30.16,,East,8.1,,,,,80,2012-10-07 12:00:00
5:00 AM,51.8,41.0,67,30.16,9.0,East,10.4,-,N/A,,Clear,90,2012-10-07 12:00:00
6:00 AM,50.0,41.0,71,30.16,9.0,East,10.4,-,N/A,,Clear,90,2012-10-07 13:00:00
8:00 AM,48,40,66,30.16,,ENE,9.2,,,,,70,2012-10-07 15:00:00
8:00 AM,48.2,41.0,76,30.16,9.0,East,8.1,-,N/A,,Clear,80,2012-10-07 15:00:00
9:00 AM,51.8,39.2,62,30.15,9.0,East,9.2,-,N/A,,Clear,90,2012-10-07 16:00:00
10:00 AM,57.2,41.0,55,30.14,9.0,East,11.5,-,N/A,,Clear,90,2012-10-07 17:00:00
11:00 AM,60,41,38,30.11,,East,11.5,,,,,90,2012-10-07 18:00:00
11:00 AM,60.8,41.0,48,30.11,9.0,East,11.5,-,N/A,,Clear,100,2012-10-07 18:00:00
12:00 PM,66.2,41.0,40,30.07,9.0,East,10.4,-,N/A,,Clear,90,2012-10-07 19:00:00
1:00 PM,69.8,39.2,33,30.04,9.0,East,8.1,-,N/A,,Clear,100,2012-10-07 20:00:00
2:00 PM,73,41,21,30.00,,ESE,4.6,,,,,120,2012-10-07 21:00:00
2:00 PM,73.4,39.2,29,30.00,9.0,SE,3.5,-,N/A,,Clear,130,2012-10-07 21:00:00
3:00 PM,73.4,41.0,31,29.97,9.0,West,8.1,-,N/A,,Clear,270,2012-10-07 22:00:00
4:00 PM,73.4,44.6,36,29.94,9.0,WSW,8.1,-,N/A,,Clear,250,2012-10-07 23:00:00
5:00 PM,69,44,30,29.92,,WSW,6.9,,,,,240,2012-10-08 00:00:00
5:00 PM,68.0,44.6,43,29.93,9.0,WSW,9.2,-,N/A,,Clear,250,2012-10-08 00:00:00
6:00 PM,66.2,46.4,49,29.93,9.0,SW,6.9,-,N/A,,Clear,220,2012-10-08 01:00:00
8:00 PM,55,45,60,29.94,,East,2.3,,,,,90,2012-10-08 03:00:00
8:00 PM,55.4,46.4,72,29.95,9.0,Calm,Calm,-,N/A,,Clear,0,2012-10-08 03:00:00
9:00 PM,50.0,44.6,82,29.95,9.0,ESE,3.5,-,N/A,,Clear,120,2012-10-08 04:00:00
10:00 PM,55.4,46.4,72,29.96,9.0,East,5.8,-,N/A,,Clear,80,2012-10-08 05:00:00
11:00 PM,56,45,58,29.95,,ENE,5.8,,,,,70,2012-10-08 06:00:00
11:00 PM,57.2,44.6,63,29.95,9.0,East,8.1,-,N/A,,Clear,90,2012-10-08 06:00:00